Weather History for Warrenton, VA

Change the Weather History Date:

Thursday, December 13, 2012

  Actual Average (KHEF) Record (KHEF)
Temperature  
Mean Temperature 36 °F -  
Max Temperature 50 °F 45 °F 59 °F (2006)
Min Temperature 23 °F 26 °F 15 °F (2000)
Degree Days  
Heating Degree Days 28    
Moisture  
Dew Point 30 °F    
Average Humidity 79    
Maximum Humidity 100    
Minimum Humidity 46    
Precipitation  
Precipitation 0.00 in - - ()
Sea Level Pressure  
Sea Level Pressure 30.40 in    
Wind  
Wind Speed 2 mph (NNE)    
Max Wind Speed 8 mph    
Max Gust Speed -    
Visibility 10 miles    
Events      
Averages and records for this station are not official NWS values.
T = Trace of Precipitation, MM = Missing Value Source: NWS Daily Summary

Daily Weather History Graph

Daily Weather History Graph

Search for Another Location

Airport:

Trip Planner

Search our weather history database for the weather conditions in past years. The results will help you decide how hot, cold, wet, or windy it might be!

Date:

Astronomy

Dec. 13, 2012 Rise Set
Actual Time 7:20 AM EST 4:50 PM EST
Civil Twilight 6:50 AM EST 5:20 PM EST
Nautical Twilight 6:17 AM EST 5:53 PM EST
Astronomical Twilight 5:44 AM EST 6:25 PM EST
Moon 7:26 AM EST (12/13) 5:30 PM EST (12/13)
Length of Visible Light 10h 29m
Length of Day
9h 30m
New Moon, 0% of the Moon is Illuminated
Dec 13
New Moon
Dec 20
First Quarter
Dec 28
Full
Jan 4
Last Quarter
Jan 11
New

Hourly Weather History & Observations

Time (EST) Temp. Windchill Dew Point Humidity Pressure Visibility Wind Dir Wind Speed Gust Speed Precip Events Conditions
12:15 AM 36.7 °F 34.1 °F 32.0 °F 83% 30.38 in 10.0 mi NNE 3.5 mph - N/A   Clear
12:35 AM 36.5 °F - 32.0 °F 84% 30.38 in 10.0 mi Calm Calm - N/A   Clear
12:55 AM 36.0 °F - 32.0 °F 86% 30.39 in 10.0 mi Calm Calm - N/A   Clear
1:15 AM 36.5 °F - 32.0 °F 84% 30.38 in 10.0 mi Calm Calm - N/A   Clear
1:35 AM 36.0 °F - 31.8 °F 85% 30.40 in 10.0 mi Calm Calm - N/A   Clear
1:55 AM 36.5 °F 33.9 °F 31.6 °F 83% 30.39 in 10.0 mi NNE 3.5 mph - N/A   Clear
2:15 AM 36.5 °F - 31.3 °F 81% 30.40 in 10.0 mi Calm Calm - N/A   Clear
2:55 AM 33.6 °F - 32.0 °F 94% 30.42 in 10.0 mi Calm Calm - N/A   Clear
3:15 AM 32.5 °F - 32.0 °F 98% 30.41 in 10.0 mi Calm Calm - N/A   Clear
3:35 AM 32.2 °F - 31.8 °F 99% 30.41 in 10.0 mi Calm Calm - N/A   Clear
3:55 AM 32.0 °F - 31.8 °F 99% 30.41 in 10.0 mi Calm Calm - N/A   Clear
4:15 AM 31.5 °F - 31.5 °F 100% 30.41 in 10.0 mi Calm Calm - N/A   Clear
4:35 AM 31.1 °F - 30.7 °F 99% 30.41 in 10.0 mi Calm Calm - N/A   Clear
4:55 AM 30.2 °F - 30.2 °F 100% 30.41 in 10.0 mi Calm Calm - N/A   Clear
5:15 AM 29.3 °F - 28.8 °F 98% 30.41 in 10.0 mi Calm Calm - N/A   Clear
5:35 AM 28.2 °F - 27.9 °F 99% 30.41 in 10.0 mi Calm Calm - N/A   Clear
5:55 AM 28.4 °F - 28.4 °F 100% 30.42 in 10.0 mi Calm Calm - N/A   Clear
6:15 AM 30.2 °F - 30.2 °F 100% 30.42 in 10.0 mi Calm Calm - N/A   Clear
6:55 AM 27.7 °F - 27.1 °F 98% 30.43 in 10.0 mi Calm Calm - N/A   Clear
7:15 AM 33.3 °F 30.2 °F 29.5 °F 86% 30.43 in 10.0 mi NNE 3.5 mph - N/A   Clear
7:35 AM 33.1 °F - 29.1 °F 85% 30.43 in 10.0 mi Calm Calm - N/A   Clear
7:55 AM 30.7 °F - 28.0 °F 90% 30.43 in 10.0 mi Calm Calm - N/A   Clear
8:15 AM 30.9 °F - 28.8 °F 92% 30.43 in 10.0 mi Calm Calm - N/A   Clear
8:35 AM 34.7 °F - 32.0 °F 90% 30.43 in 10.0 mi Calm Calm - N/A   Clear
8:55 AM 38.3 °F 34.8 °F 31.5 °F 76% 30.44 in 10.0 mi North 4.6 mph - N/A   Clear
9:15 AM 40.5 °F 37.3 °F 32.0 °F 72% 30.45 in 10.0 mi North 4.6 mph - N/A   Clear
9:35 AM 41.9 °F 38.2 °F 32.0 °F 68% 30.46 in 10.0 mi North 5.8 mph - N/A   Clear
9:55 AM 43.7 °F 39.7 °F 32.0 °F 63% 30.46 in 10.0 mi NNE 6.9 mph - N/A   Clear
10:15 AM 44.6 °F 40.7 °F 32.2 °F 62% 30.46 in 10.0 mi NE 6.9 mph - N/A   Clear
10:55 AM 45.9 °F 42.3 °F 32.0 °F 58% 30.46 in 10.0 mi NNE 6.9 mph - N/A   Clear
11:15 AM 46.6 °F - 32.0 °F 57% 30.45 in 10.0 mi NNE 8.1 mph - N/A   Clear
11:35 AM 47.3 °F - 32.2 °F 56% 30.43 in 10.0 mi North 4.6 mph - N/A   Clear
11:55 AM 47.8 °F - 32.0 °F 54% 30.43 in 10.0 mi ENE 5.8 mph - N/A   Clear
12:15 PM 47.7 °F - 32.0 °F 55% 30.42 in 10.0 mi North 8.1 mph - N/A   Clear
12:35 PM 48.0 °F - 32.2 °F 54% 30.41 in 10.0 mi Calm Calm - N/A   Clear
12:55 PM 48.6 °F - 32.5 °F 54% 30.41 in 10.0 mi Calm Calm - N/A   Clear
1:15 PM 48.6 °F - 31.6 °F 52% 30.40 in 10.0 mi Calm Calm - N/A   Clear
1:35 PM 49.8 °F - 31.8 °F 50% 30.39 in 10.0 mi North 3.5 mph - N/A   Clear
1:55 PM 49.3 °F - 30.7 °F 49% 30.40 in 10.0 mi North 6.9 mph - N/A   Clear
2:15 PM 49.5 °F - 30.0 °F 47% 30.40 in 10.0 mi North 4.6 mph - N/A   Clear
2:35 PM 49.5 °F - 29.7 °F 47% 30.39 in 10.0 mi Calm Calm - N/A   Clear
2:55 PM 49.6 °F - 30.0 °F 47% 30.38 in 10.0 mi NNE 3.5 mph - N/A   Clear
3:15 PM 49.6 °F - 29.5 °F 46% 30.38 in 10.0 mi North 3.5 mph - N/A   Clear
3:35 PM 49.1 °F - 29.1 °F 46% 30.37 in 10.0 mi Calm Calm - N/A   Clear
3:55 PM 49.3 °F - 29.1 °F 46% 30.37 in 10.0 mi Calm Calm - N/A   Clear
4:15 PM 47.1 °F - 31.5 °F 55% 30.38 in 10.0 mi North 3.5 mph - N/A   Clear
4:35 PM 44.8 °F - 32.0 °F 61% 30.38 in 10.0 mi Calm Calm - N/A   Clear
4:55 PM 41.2 °F - 31.3 °F 68% 30.37 in 10.0 mi Calm Calm - N/A   Clear
5:15 PM 38.8 °F - 30.0 °F 71% 30.37 in 10.0 mi Calm Calm - N/A   Clear
6:35 PM 31.8 °F - 28.9 °F 89% 30.38 in 10.0 mi Calm Calm - N/A   Clear
7:15 PM 29.7 °F - 27.3 °F 91% 30.37 in 10.0 mi Calm Calm - N/A   Clear
7:55 PM 28.6 °F - 27.5 °F 96% 30.36 in 10.0 mi Calm Calm - N/A   Clear
8:15 PM 26.6 °F - 26.4 °F 99% 30.38 in 10.0 mi Calm Calm - N/A   Clear
8:55 PM 26.4 °F - 25.9 °F 98% 30.36 in 10.0 mi Calm Calm - N/A   Clear
9:15 PM 25.9 °F - 25.5 °F 99% 30.36 in 10.0 mi Calm Calm - N/A   Clear
9:35 PM 26.2 °F - 26.1 °F 99% 30.36 in 10.0 mi Calm Calm - N/A   Clear
9:55 PM 26.8 °F - 26.8 °F 100% 30.35 in 10.0 mi Calm Calm - N/A   Clear
10:15 PM 24.4 °F - 24.4 °F 100% 30.35 in 10.0 mi Calm Calm - N/A   Clear
10:35 PM 26.1 °F - 26.1 °F 100% 30.35 in 10.0 mi Calm Calm - N/A   Clear
10:55 PM 25.2 °F - 25.2 °F 100% 30.35 in 10.0 mi Calm Calm - N/A   Clear
11:15 PM 25.0 °F - 25.0 °F 100% 30.35 in 10.0 mi Calm Calm - N/A   Clear
11:35 PM 24.6 °F - 24.6 °F 100% 30.35 in 10.0 mi Calm Calm - N/A   Clear
11:55 PM 23.9 °F - 23.9 °F 100% 30.34 in 10.0 mi Calm Calm - N/A   Clear